TimeEDT,TemperatureF,Dew PointF,Humidity,Sea Level PressureIn,VisibilityMPH,Wind Direction,Wind SpeedMPH,Gust SpeedMPH,PrecipitationIn,Events,Conditions,WindDirDegrees,DateUTC
12:15 AM,62.6,55.4,77,30.02,10.0,South,8.1,-,N/A,,Clear,190,2012-10-15 04:15:00
12:35 AM,60.8,53.6,77,30.02,10.0,South,6.9,-,N/A,,Clear,190,2012-10-15 04:35:00
12:55 AM,62.6,53.6,72,30.02,10.0,SSW,8.1,-,N/A,,Clear,200,2012-10-15 04:55:00
1:15 AM,62.6,55.4,77,30.02,10.0,SSW,10.4,-,N/A,,Clear,200,2012-10-15 05:15:00
1:55 AM,62.6,55.4,77,30.01,10.0,South,8.1,-,N/A,,Overcast,190,2012-10-15 05:55:00
2:15 AM,60.8,55.4,82,30.00,10.0,SSW,6.9,-,N/A,,Mostly Cloudy,200,2012-10-15 06:15:00
2:35 AM,60.8,55.4,82,29.99,10.0,South,8.1,-,N/A,,Scattered Clouds,190,2012-10-15 06:35:00
2:55 AM,62.6,55.4,77,29.98,10.0,SSW,8.1,-,N/A,,Scattered Clouds,200,2012-10-15 06:55:00
3:15 AM,60.8,55.4,82,29.97,10.0,SSW,6.9,-,N/A,,Clear,200,2012-10-15 07:15:00
3:55 AM,60.8,55.4,82,29.95,10.0,SSW,9.2,-,N/A,,Clear,200,2012-10-15 07:55:00
4:15 AM,60.8,55.4,82,29.95,10.0,SSW,9.2,-,N/A,,Clear,200,2012-10-15 08:15:00
4:35 AM,60.8,55.4,82,29.94,10.0,SSW,8.1,-,N/A,,Clear,200,2012-10-15 08:35:00
4:55 AM,60.8,55.4,82,29.94,10.0,SSW,6.9,-,N/A,,Clear,210,2012-10-15 08:55:00
5:15 AM,60.8,55.4,82,29.93,10.0,South,6.9,-,N/A,,Scattered Clouds,190,2012-10-15 09:15:00
5:55 AM,60.8,57.2,88,29.93,10.0,SSW,6.9,-,N/A,,Clear,200,2012-10-15 09:55:00
6:15 AM,60.8,57.2,88,29.92,10.0,SSW,6.9,-,N/A,,Clear,210,2012-10-15 10:15:00
6:35 AM,60.8,57.2,88,29.92,10.0,SSW,8.1,-,N/A,,Clear,210,2012-10-15 10:35:00
6:55 AM,60.8,57.2,88,29.91,10.0,SSW,10.4,-,N/A,,Clear,210,2012-10-15 10:55:00
7:15 AM,60.8,57.2,88,29.91,10.0,SSW,8.1,-,N/A,,Scattered Clouds,210,2012-10-15 11:15:00
7:35 AM,60.8,59.0,94,29.91,10.0,SSW,9.2,-,N/A,,Overcast,200,2012-10-15 11:35:00
7:55 AM,60.8,59.0,94,29.92,10.0,SW,8.1,-,N/A,Rain,Light Rain,220,2012-10-15 11:55:00
8:15 AM,60.8,59.0,94,29.92,10.0,SSW,9.2,-,N/A,Rain,Light Rain,210,2012-10-15 12:15:00
8:35 AM,60.8,59.0,94,29.92,10.0,SSW,6.9,-,N/A,Rain,Light Rain,210,2012-10-15 12:35:00
8:55 AM,60.8,59.0,94,29.92,10.0,South,9.2,-,N/A,Rain,Light Rain,190,2012-10-15 12:55:00
9:15 AM,62.6,59.0,88,29.93,10.0,SSW,8.1,-,N/A,Rain,Light Rain,210,2012-10-15 13:15:00
9:35 AM,62.6,59.0,88,29.93,10.0,SSW,8.1,-,N/A,,Mostly Cloudy,210,2012-10-15 13:35:00
9:55 AM,62.6,60.8,94,29.94,7.0,West,3.5,-,N/A,Rain,Light Rain,280,2012-10-15 13:55:00
10:15 AM,62.6,60.8,94,29.93,10.0,SW,3.5,-,0.01,,Overcast,230,2012-10-15 14:15:00
10:35 AM,62.6,60.8,94,29.92,10.0,South,6.9,-,0.01,,Overcast,180,2012-10-15 14:35:00
10:55 AM,62.6,60.8,94,29.92,7.0,SSW,5.8,-,0.02,Rain,Light Rain,200,2012-10-15 14:55:00
11:15 AM,62.6,60.8,94,29.90,7.0,South,3.5,-,N/A,Rain,Light Rain,180,2012-10-15 15:15:00
11:35 AM,62.6,60.8,94,29.89,7.0,South,3.5,-,N/A,Rain,Rain,180,2012-10-15 15:35:00
11:55 AM,62.6,60.8,94,29.90,7.0,SW,6.9,-,0.01,Rain,Light Rain,230,2012-10-15 15:55:00
12:15 PM,62.6,60.8,94,29.89,7.0,SSW,4.6,-,0.01,Rain,Light Rain,200,2012-10-15 16:15:00
12:55 PM,62.6,60.8,94,29.83,10.0,SE,4.6,-,0.02,Rain,Light Rain,130,2012-10-15 16:55:00
1:15 PM,62.6,62.6,100,29.82,10.0,South,5.8,-,N/A,Rain,Light Rain,170,2012-10-15 17:15:00
1:35 PM,64.4,62.6,94,29.82,7.0,South,5.8,-,0.01,Rain,Light Rain,180,2012-10-15 17:35:00
2:15 PM,64.4,62.6,94,29.79,5.0,South,8.1,-,0.01,Rain,Heavy Rain,190,2012-10-15 18:15:00
2:35 PM,64.4,62.6,94,29.77,7.0,SSW,5.8,-,0.04,Rain,Light Rain,200,2012-10-15 18:35:00
2:55 PM,64.4,62.6,94,29.77,10.0,SSW,6.9,-,0.04,,Overcast,210,2012-10-15 18:55:00
3:15 PM,64.4,62.6,94,29.76,10.0,SW,8.1,-,N/A,,Overcast,220,2012-10-15 19:15:00
3:35 PM,64.4,62.6,94,29.75,10.0,SSW,4.6,-,N/A,,Overcast,210,2012-10-15 19:35:00
3:55 PM,64.4,62.6,94,29.75,1.2,SW,6.9,-,0.17,Rain,Heavy Rain,230,2012-10-15 19:55:00
4:15 PM,66.2,64.4,94,29.73,7.0,SW,6.9,-,0.01,Rain,Light Rain,230,2012-10-15 20:15:00
4:35 PM,68.0,62.6,83,29.72,10.0,SSW,9.2,-,0.01,,Scattered Clouds,210,2012-10-15 20:35:00
4:55 PM,68.0,64.4,88,29.73,10.0,SSW,9.2,-,0.01,,Mostly Cloudy,200,2012-10-15 20:55:00
5:15 PM,66.2,62.6,88,29.73,10.0,WSW,4.6,-,N/A,,Mostly Cloudy,240,2012-10-15 21:15:00
5:35 PM,66.2,62.6,88,29.72,10.0,SW,5.8,-,N/A,,Mostly Cloudy,220,2012-10-15 21:35:00
5:55 PM,66.2,62.6,88,29.72,10.0,SW,5.8,-,N/A,,Scattered Clouds,220,2012-10-15 21:55:00
6:15 PM,64.4,62.6,94,29.72,10.0,SSW,5.8,-,N/A,,Clear,210,2012-10-15 22:15:00
6:35 PM,64.4,62.6,94,29.72,7.0,SSW,3.5,-,N/A,,Scattered Clouds,200,2012-10-15 22:35:00
6:55 PM,64.4,62.6,94,29.73,7.0,SSW,4.6,-,N/A,,Scattered Clouds,210,2012-10-15 22:55:00
7:15 PM,62.6,62.6,100,29.74,5.0,SW,3.5,-,N/A,,Scattered Clouds,220,2012-10-15 23:15:00
7:35 PM,64.4,62.6,94,29.74,4.0,Calm,Calm,-,N/A,,Scattered Clouds,0,2012-10-15 23:35:00
7:55 PM,64.4,62.6,94,29.74,10.0,WNW,4.6,-,N/A,,Mostly Cloudy,290,2012-10-15 23:55:00
8:15 PM,64.4,60.8,88,29.75,10.0,West,3.5,-,N/A,,Scattered Clouds,270,2012-10-16 00:15:00
8:35 PM,62.6,57.2,82,29.77,10.0,WNW,5.8,-,N/A,,Clear,290,2012-10-16 00:35:00
8:55 PM,62.6,53.6,72,29.78,10.0,WNW,6.9,-,0.01,,Clear,300,2012-10-16 00:55:00
9:15 PM,60.8,51.8,72,29.79,10.0,WNW,5.8,-,N/A,,Clear,300,2012-10-16 01:15:00
9:35 PM,60.8,50.0,68,29.79,10.0,WNW,5.8,-,N/A,,Clear,300,2012-10-16 01:35:00
9:55 PM,60.8,48.2,63,29.80,10.0,WNW,5.8,-,N/A,,Clear,300,2012-10-16 01:55:00
10:15 PM,59.0,46.4,63,29.81,10.0,NW,6.9,-,N/A,,Clear,310,2012-10-16 02:15:00
10:35 PM,59.0,46.4,63,29.82,10.0,WNW,5.8,-,N/A,,Clear,300,2012-10-16 02:35:00
10:55 PM,57.2,44.6,63,29.84,10.0,NW,6.9,-,N/A,,Clear,310,2012-10-16 02:55:00
11:15 PM,57.2,42.8,59,29.84,10.0,NW,9.2,-,N/A,,Clear,310,2012-10-16 03:15:00
11:35 PM,57.2,41.0,55,29.85,10.0,NW,10.4,17.3,N/A,,Clear,310,2012-10-16 03:35:00
11:55 PM,55.4,41.0,58,29.85,10.0,NNW,5.8,16.1,N/A,,Clear,330,2012-10-16 03:55:00